Time,TemperatureF,DewpointF,PressureIn,WindDirection,WindDirectionDegrees,WindSpeedMPH,WindSpeedGustMPH,Humidity,HourlyPrecipIn,Conditions,Clouds,dailyrainin,SoftwareType,DateUTC
2013-01-01 00:03:00,71.0,59.0,30.19,ESE,107,9.0,21.0,65,-99.99,,,-99.99,,2013-01-01 05:03:00,
2013-01-01 00:12:00,71.0,59.0,30.19,ESE,107,9.0,21.0,65,-99.99,,,-99.99,,2013-01-01 05:12:00,
2013-01-01 00:22:00,71.0,59.0,30.19,SE,125,8.0,19.0,65,-99.99,,,-99.99,,2013-01-01 05:22:00,
2013-01-01 00:33:00,71.0,57.0,30.19,South,170,9.0,18.0,62,-99.99,,,-99.99,,2013-01-01 05:33:00,
2013-01-01 00:42:00,71.0,57.0,30.19,South,170,9.0,18.0,62,-99.99,,,-99.99,,2013-01-01 05:42:00,
2013-01-01 00:53:00,71.0,58.0,30.19,ESE,122,9.0,20.0,64,-99.99,,,-99.99,,2013-01-01 05:53:00,
2013-01-01 01:02:00,71.0,59.0,30.19,ESE,110,13.0,19.0,67,-99.99,,,-99.99,,2013-01-01 06:02:00,
2013-01-01 01:12:00,71.0,59.0,30.19,ESE,110,13.0,19.0,67,-99.99,,,-99.99,,2013-01-01 06:12:00,
2013-01-01 01:22:00,72.0,60.0,30.18,ESE,111,6.0,13.0,66,-99.99,,,-99.99,,2013-01-01 06:22:00,
2013-01-01 01:32:00,72.0,60.0,30.17,ENE,69,6.0,12.0,65,-99.99,,,-99.99,,2013-01-01 06:32:00,
2013-01-01 01:42:00,72.0,60.0,30.17,ENE,69,6.0,12.0,65,-99.99,,,-99.99,,2013-01-01 06:42:00,
2013-01-01 01:52:00,72.0,59.0,30.17,SE,141,9.0,19.0,64,-99.99,,,-99.99,,2013-01-01 06:52:00,
2013-01-01 02:02:00,72.0,58.0,30.17,SE,128,8.0,21.0,62,-99.99,,,-99.99,,2013-01-01 07:02:00,
2013-01-01 02:12:00,71.0,57.0,30.17,East,101,14.0,25.0,62,-99.99,,,-99.99,,2013-01-01 07:12:00,
2013-01-01 02:22:00,71.0,57.0,30.17,East,101,14.0,25.0,62,-99.99,,,-99.99,,2013-01-01 07:22:00,
2013-01-01 02:32:00,71.0,58.0,30.17,ESE,113,12.0,22.0,64,-99.99,,,-99.99,,2013-01-01 07:32:00,
2013-01-01 02:42:00,71.0,58.0,30.17,ESE,113,12.0,22.0,64,-99.99,,,-99.99,,2013-01-01 07:42:00,
2013-01-01 02:53:00,72.0,59.0,30.16,ESE,121,9.0,19.0,63,-99.99,,,-99.99,,2013-01-01 07:53:00,
2013-01-01 03:02:00,71.0,58.0,30.16,SE,136,7.0,15.0,64,-99.99,,,-99.99,,2013-01-01 08:02:00,
2013-01-01 03:12:00,71.0,58.0,30.16,SE,136,7.0,15.0,64,-99.99,,,-99.99,,2013-01-01 08:12:00,
2013-01-01 03:22:00,71.0,57.0,30.16,SE,145,9.0,18.0,62,-99.99,,,-99.99,,2013-01-01 08:22:00,
2013-01-01 03:32:00,71.0,57.0,30.16,SE,124,9.0,20.0,61,-99.99,,,-99.99,,2013-01-01 08:32:00,
2013-01-01 03:42:00,72.0,59.0,30.16,ESE,103,6.0,13.0,63,-99.99,,,-99.99,,2013-01-01 08:42:00,
2013-01-01 03:53:00,72.0,59.0,30.16,ESE,103,6.0,13.0,63,-99.99,,,-99.99,,2013-01-01 08:53:00,
2013-01-01 04:02:00,71.0,58.0,30.16,South,170,6.0,10.0,64,-99.99,,,-99.99,,2013-01-01 09:02:00,
2013-01-01 04:12:00,71.0,58.0,30.16,South,170,6.0,10.0,64,-99.99,,,-99.99,,2013-01-01 09:12:00,
2013-01-01 04:22:00,71.0,58.0,30.17,ESE,105,10.0,20.0,63,-99.99,,,-99.99,,2013-01-01 09:22:00,
2013-01-01 04:32:00,72.0,57.0,30.16,East,101,9.0,19.0,60,-99.99,,,-99.99,,2013-01-01 09:32:00,
2013-01-01 04:42:00,72.0,57.0,30.16,East,101,9.0,19.0,60,-99.99,,,-99.99,,2013-01-01 09:42:00,
2013-01-01 04:52:00,71.0,56.0,30.16,SE,128,8.0,15.0,59,-99.99,,,-99.99,,2013-01-01 09:52:00,
2013-01-01 05:02:00,71.0,56.0,30.16,SSE,159,7.0,14.0,60,-99.99,,,-99.99,,2013-01-01 10:02:00,
2013-01-01 05:12:00,72.0,58.0,30.15,East,101,8.0,16.0,62,-99.99,,,-99.99,,2013-01-01 10:12:00,
2013-01-01 05:22:00,72.0,58.0,30.15,East,101,8.0,16.0,62,-99.99,,,-99.99,,2013-01-01 10:22:00,
2013-01-01 05:33:00,72.0,58.0,30.14,SE,132,9.0,20.0,62,-99.99,,,-99.99,,2013-01-01 10:33:00,
2013-01-01 05:42:00,72.0,58.0,30.14,SE,132,9.0,20.0,62,-99.99,,,-99.99,,2013-01-01 10:42:00,
2013-01-01 05:53:00,71.0,56.0,30.14,ESE,117,10.0,20.0,60,-99.99,,,-99.99,,2013-01-01 10:53:00,
2013-01-01 06:02:00,71.0,57.0,30.14,ESE,111,12.0,25.0,62,-99.99,,,-99.99,,2013-01-01 11:02:00,
2013-01-01 06:12:00,71.0,57.0,30.14,ESE,111,12.0,25.0,62,-99.99,,,-99.99,,2013-01-01 11:12:00,
2013-01-01 06:23:00,70.0,55.0,30.14,ESE,107,15.0,26.0,58,-99.99,,,-99.99,,2013-01-01 11:23:00,
2013-01-01 06:33:00,71.0,57.0,30.14,East,93,6.0,16.0,62,-99.99,,,-99.99,,2013-01-01 11:33:00,
2013-01-01 06:42:00,71.0,57.0,30.14,East,93,6.0,16.0,62,-99.99,,,-99.99,,2013-01-01 11:42:00,
2013-01-01 06:53:00,71.0,56.0,30.14,ESE,117,12.0,21.0,60,-99.99,,,-99.99,,2013-01-01 11:53:00,
2013-01-01 07:02:00,71.0,56.0,30.14,SE,129,9.0,21.0,60,-99.99,,,-99.99,,2013-01-01 12:02:00,
2013-01-01 07:12:00,71.0,56.0,30.14,SE,129,9.0,21.0,60,-99.99,,,-99.99,,2013-01-01 12:12:00,
2013-01-01 07:22:00,72.0,58.0,30.14,ESE,121,8.0,19.0,62,-99.99,,,-99.99,,2013-01-01 12:22:00,
2013-01-01 07:33:00,72.0,58.0,30.13,NW,318,9.0,23.0,61,-99.99,,,-99.99,,2013-01-01 12:33:00,
2013-01-01 07:43:00,72.0,58.0,30.13,NW,318,9.0,23.0,61,-99.99,,,-99.99,,2013-01-01 12:43:00,
2013-01-01 07:53:00,72.0,58.0,30.13,ESE,105,9.0,18.0,61,-99.99,,,-99.99,,2013-01-01 12:53:00,
2013-01-01 08:03:00,72.0,59.0,30.14,South,169,8.0,18.0,63,-99.99,,,-99.99,,2013-01-01 13:03:00,
2013-01-01 08:12:00,72.0,59.0,30.14,South,169,8.0,18.0,63,-99.99,,,-99.99,,2013-01-01 13:12:00,
2013-01-01 08:22:00,72.0,60.0,30.14,NNE,27,8.0,15.0,66,-99.99,,,-99.99,,2013-01-01 13:22:00,
2013-01-01 08:33:00,72.0,60.0,30.14,SSE,150,8.0,17.0,66,-99.99,,,-99.99,,2013-01-01 13:33:00,
2013-01-01 08:43:00,72.0,60.0,30.14,SSE,150,8.0,17.0,66,-99.99,,,-99.99,,2013-01-01 13:43:00,
2013-01-01 08:53:00,72.0,59.0,30.15,SW,233,8.0,16.0,63,-99.99,,,-99.99,,2013-01-01 13:53:00,
2013-01-01 09:02:00,72.0,60.0,30.16,SSE,148,7.0,15.0,66,-99.99,,,-99.99,,2013-01-01 14:02:00,
2013-01-01 09:12:00,72.0,60.0,30.16,SSE,148,7.0,15.0,66,-99.99,,,-99.99,,2013-01-01 14:12:00,
2013-01-01 09:22:00,73.0,60.0,30.16,SE,128,8.0,14.0,63,-99.99,,,-99.99,,2013-01-01 14:22:00,
2013-01-01 09:32:00,73.0,59.0,30.16,NNE,30,8.0,15.0,61,-99.99,,,-99.99,,2013-01-01 14:32:00,
2013-01-01 09:42:00,73.0,59.0,30.16,NNE,30,8.0,15.0,61,-99.99,,,-99.99,,2013-01-01 14:42:00,
2013-01-01 09:53:00,74.0,59.0,30.16,North,7,7.0,15.0,60,-99.99,,,-99.99,,2013-01-01 14:53:00,
2013-01-01 10:03:00,74.0,59.0,30.16,ESE,114,6.0,16.0,60,-99.99,,,-99.99,,2013-01-01 15:03:00,
2013-01-01 10:12:00,73.0,58.0,30.16,ENE,70,9.0,16.0,59,-99.99,,,-99.99,,2013-01-01 15:12:00,
2013-01-01 10:22:00,73.0,58.0,30.16,ENE,70,9.0,16.0,59,-99.99,,,-99.99,,2013-01-01 15:22:00,
2013-01-01 10:33:00,74.0,58.0,30.16,North,353,9.0,15.0,57,-99.99,,,-99.99,,2013-01-01 15:33:00,
2013-01-01 10:42:00,74.0,58.0,30.16,North,353,9.0,15.0,57,-99.99,,,-99.99,,2013-01-01 15:42:00,
2013-01-01 10:53:00,74.0,59.0,30.16,North,11,7.0,16.0,59,-99.99,,,-99.99,,2013-01-01 15:53:00,
2013-01-01 11:02:00,74.0,61.0,30.16,ESE,122,7.0,17.0,64,-99.99,,,-99.99,,2013-01-01 16:02:00,
2013-01-01 11:12:00,74.0,61.0,30.16,ESE,122,7.0,17.0,64,-99.99,,,-99.99,,2013-01-01 16:12:00,
2013-01-01 11:22:00,75.0,61.0,30.15,NE,56,8.0,14.0,61,-99.99,,,-99.99,,2013-01-01 16:22:00,
2013-01-01 11:33:00,74.0,59.0,30.14,East,86,8.0,20.0,60,-99.99,,,-99.99,,2013-01-01 16:33:00,
2013-01-01 11:42:00,74.0,59.0,30.14,East,86,8.0,20.0,60,-99.99,,,-99.99,,2013-01-01 16:42:00,
2013-01-01 11:53:00,75.0,60.0,30.14,NNE,21,8.0,15.0,59,-99.99,,,-99.99,,2013-01-01 16:53:00,
2013-01-01 12:02:00,74.0,59.0,30.13,NE,49,7.0,15.0,60,-99.99,,,-99.99,,2013-01-01 17:02:00,
2013-01-01 12:12:00,74.0,59.0,30.13,NE,49,7.0,15.0,60,-99.99,,,-99.99,,2013-01-01 17:12:00,
2013-01-01 12:22:00,75.0,60.0,30.13,NNW,343,6.0,16.0,60,-99.99,,,-99.99,,2013-01-01 17:22:00,
2013-01-01 12:33:00,75.0,60.0,30.12,NE,49,6.0,14.0,60,-99.99,,,-99.99,,2013-01-01 17:33:00,
2013-01-01 12:43:00,75.0,60.0,30.12,NE,49,6.0,14.0,60,-99.99,,,-99.99,,2013-01-01 17:43:00,
2013-01-01 12:53:00,75.0,61.0,30.11,ESE,114,9.0,17.0,61,-99.99,,,-99.99,,2013-01-01 17:53:00,
2013-01-01 13:03:00,74.0,59.0,30.10,NNE,18,8.0,18.0,60,-99.99,,,-99.99,,2013-01-01 18:03:00,
2013-01-01 13:12:00,74.0,59.0,30.10,NNE,18,8.0,18.0,60,-99.99,,,-99.99,,2013-01-01 18:12:00,
2013-01-01 13:23:00,74.0,59.0,30.09,NE,37,8.0,15.0,60,-99.99,,,-99.99,,2013-01-01 18:23:00,
2013-01-01 13:33:00,75.0,60.0,30.08,North,11,8.0,18.0,60,-99.99,,,-99.99,,2013-01-01 18:33:00,
2013-01-01 13:42:00,75.0,60.0,30.08,North,11,8.0,18.0,60,-99.99,,,-99.99,,2013-01-01 18:42:00,
2013-01-01 13:53:00,75.0,60.0,30.08,North,11,8.0,18.0,60,-99.99,,,-99.99,,2013-01-01 18:53:00,
2013-01-01 14:02:00,75.0,61.0,30.07,SE,131,6.0,13.0,61,-99.99,,,-99.99,,2013-01-01 19:02:00,
2013-01-01 14:12:00,75.0,61.0,30.07,SE,131,6.0,13.0,61,-99.99,,,-99.99,,2013-01-01 19:12:00,
2013-01-01 14:22:00,76.0,61.0,30.07,East,97,6.0,11.0,60,-99.99,,,-99.99,,2013-01-01 19:22:00,
2013-01-01 14:33:00,76.0,61.0,30.06,NNE,14,5.0,10.0,60,-99.99,,,-99.99,,2013-01-01 19:33:00,
2013-01-01 14:42:00,76.0,61.0,30.06,NNE,14,5.0,10.0,60,-99.99,,,-99.99,,2013-01-01 19:42:00,
2013-01-01 14:53:00,76.0,62.0,30.06,ENE,77,5.0,9.0,61,-99.99,,,-99.99,,2013-01-01 19:53:00,
2013-01-01 15:02:00,75.0,62.0,30.06,ENE,58,6.0,13.0,65,-99.99,,,-99.99,,2013-01-01 20:02:00,
2013-01-01 15:12:00,75.0,62.0,30.06,ENE,58,6.0,13.0,65,-99.99,,,-99.99,,2013-01-01 20:12:00,
2013-01-01 15:23:00,75.0,62.0,30.06,ENE,70,6.0,13.0,64,-99.99,,,-99.99,,2013-01-01 20:23:00,
2013-01-01 15:32:00,75.0,62.0,30.06,SSE,152,5.0,15.0,64,-99.99,,,-99.99,,2013-01-01 20:32:00,
2013-01-01 15:42:00,75.0,62.0,30.06,SSE,152,5.0,15.0,64,-99.99,,,-99.99,,2013-01-01 20:42:00,
2013-01-01 15:53:00,76.0,63.0,30.06,ENE,76,5.0,8.0,64,-99.99,,,-99.99,,2013-01-01 20:53:00,
2013-01-01 16:03:00,75.0,62.0,30.06,NE,51,5.0,10.0,64,-99.99,,,-99.99,,2013-01-01 21:03:00,
2013-01-01 16:13:00,76.0,62.0,30.06,ENE,73,4.0,7.0,62,-99.99,,,-99.99,,2013-01-01 21:13:00,
2013-01-01 16:22:00,76.0,62.0,30.06,ENE,73,4.0,7.0,62,-99.99,,,-99.99,,2013-01-01 21:22:00,
2013-01-01 16:33:00,75.0,62.0,30.06,East,82,5.0,11.0,65,-99.99,,,-99.99,,2013-01-01 21:33:00,
2013-01-01 16:42:00,75.0,62.0,30.06,East,82,5.0,11.0,65,-99.99,,,-99.99,,2013-01-01 21:42:00,
2013-01-01 16:53:00,74.0,61.0,30.06,NE,38,5.0,10.0,65,-99.99,,,-99.99,,2013-01-01 21:53:00,
2013-01-01 17:03:00,75.0,62.0,30.06,NE,49,4.0,8.0,65,-99.99,,,-99.99,,2013-01-01 22:03:00,
2013-01-01 17:12:00,75.0,62.0,30.06,NE,49,4.0,8.0,65,-99.99,,,-99.99,,2013-01-01 22:12:00,
2013-01-01 17:22:00,74.0,62.0,30.06,NE,49,5.0,11.0,67,-99.99,,,-99.99,,2013-01-01 22:22:00,
2013-01-01 17:33:00,74.0,63.0,30.06,NNE,31,4.0,9.0,68,-99.99,,,-99.99,,2013-01-01 22:33:00,
2013-01-01 17:42:00,74.0,63.0,30.06,NNE,31,4.0,9.0,68,-99.99,,,-99.99,,2013-01-01 22:42:00,
2013-01-01 17:53:00,74.0,62.0,30.06,East,87,3.0,7.0,67,-99.99,,,-99.99,,2013-01-01 22:53:00,
2013-01-01 18:03:00,74.0,61.0,30.06,SE,131,4.0,11.0,65,-99.99,,,-99.99,,2013-01-01 23:03:00,
2013-01-01 18:12:00,74.0,61.0,30.06,SE,131,4.0,11.0,65,-99.99,,,-99.99,,2013-01-01 23:12:00,
2013-01-01 18:22:00,74.0,62.0,30.06,SE,146,4.0,10.0,67,-99.99,,,-99.99,,2013-01-01 23:22:00,
2013-01-01 18:32:00,74.0,62.0,30.06,South,188,2.0,8.0,66,-99.99,,,-99.99,,2013-01-01 23:32:00,
2013-01-01 18:42:00,74.0,62.0,30.06,South,188,2.0,8.0,66,-99.99,,,-99.99,,2013-01-01 23:42:00,
2013-01-01 18:53:00,74.0,61.0,30.06,SSE,167,7.0,11.0,64,-99.99,,,-99.99,,2013-01-01 23:53:00,
2013-01-01 19:02:00,74.0,60.0,30.06,South,190,5.0,12.0,62,-99.99,,,-99.99,,2013-01-02 00:02:00,
2013-01-01 19:12:00,74.0,60.0,30.06,South,190,5.0,12.0,62,-99.99,,,-99.99,,2013-01-02 00:12:00,
2013-01-01 19:22:00,74.0,61.0,30.06,South,177,2.0,7.0,64,-99.99,,,-99.99,,2013-01-02 00:22:00,
2013-01-01 19:32:00,74.0,62.0,30.06,South,174,4.0,8.0,66,-99.99,,,-99.99,,2013-01-02 00:32:00,
2013-01-01 19:42:00,74.0,62.0,30.06,South,174,4.0,8.0,66,-99.99,,,-99.99,,2013-01-02 00:42:00,
2013-01-01 19:53:00,74.0,61.0,30.06,SSW,208,5.0,7.0,65,-99.99,,,-99.99,,2013-01-02 00:53:00,
2013-01-01 20:02:00,73.0,62.0,30.07,SSW,212,6.0,7.0,68,-99.99,,,-99.99,,2013-01-02 01:02:00,
2013-01-01 20:12:00,73.0,62.0,30.07,SSW,212,6.0,7.0,68,-99.99,,,-99.99,,2013-01-02 01:12:00,
2013-01-01 20:22:00,73.0,61.0,30.07,South,187,7.0,9.0,67,-99.99,,,-99.99,,2013-01-02 01:22:00,
2013-01-01 20:32:00,73.0,61.0,30.07,SSW,193,6.0,8.0,66,-99.99,,,-99.99,,2013-01-02 01:32:00,
2013-01-01 20:42:00,73.0,61.0,30.07,SSW,193,6.0,8.0,66,-99.99,,,-99.99,,2013-01-02 01:42:00,
2013-01-01 20:52:00,73.0,61.0,30.08,South,169,4.0,6.0,66,-99.99,,,-99.99,,2013-01-02 01:52:00,
2013-01-01 21:02:00,73.0,61.0,30.08,SSW,204,3.0,6.0,66,-99.99,,,-99.99,,2013-01-02 02:02:00,
2013-01-01 21:12:00,73.0,61.0,30.08,SSW,204,3.0,6.0,66,-99.99,,,-99.99,,2013-01-02 02:12:00,
2013-01-01 21:22:00,73.0,62.0,30.08,South,190,6.0,8.0,68,-99.99,,,-99.99,,2013-01-02 02:22:00,
2013-01-01 21:32:00,73.0,61.0,30.08,South,186,6.0,9.0,66,-99.99,,,-99.99,,2013-01-02 02:32:00,
2013-01-01 21:42:00,73.0,61.0,30.08,South,186,6.0,9.0,66,-99.99,,,-99.99,,2013-01-02 02:42:00,
2013-01-01 21:52:00,74.0,62.0,30.08,SSW,197,2.0,6.0,66,-99.99,,,-99.99,,2013-01-02 02:52:00,
2013-01-01 22:02:00,74.0,62.0,30.09,SSE,167,4.0,7.0,66,-99.99,,,-99.99,,2013-01-02 03:02:00,
2013-01-01 22:12:00,74.0,62.0,30.09,SSE,167,4.0,7.0,66,-99.99,,,-99.99,,2013-01-02 03:12:00,
2013-01-01 22:22:00,73.0,61.0,30.09,SSE,163,4.0,8.0,67,-99.99,,,-99.99,,2013-01-02 03:22:00,
2013-01-01 22:32:00,73.0,62.0,30.09,NE,41,2.0,4.0,68,-99.99,,,-99.99,,2013-01-02 03:32:00,
2013-01-01 22:42:00,73.0,62.0,30.09,NE,41,2.0,4.0,68,-99.99,,,-99.99,,2013-01-02 03:42:00,
2013-01-01 22:53:00,73.0,62.0,30.09,NNE,21,1.0,4.0,68,-99.99,,,-99.99,,2013-01-02 03:53:00,
2013-01-01 23:02:00,73.0,60.0,30.08,South,184,2.0,5.0,63,-99.99,,,-99.99,,2013-01-02 04:02:00,
2013-01-01 23:12:00,73.0,60.0,30.08,South,184,2.0,5.0,63,-99.99,,,-99.99,,2013-01-02 04:12:00,
2013-01-01 23:22:00,73.0,60.0,30.08,SSE,156,0.0,1.0,63,-99.99,,,-99.99,,2013-01-02 04:22:00,
2013-01-01 23:32:00,73.0,60.0,30.07,North,3,1.0,3.0,64,-99.99,,,-99.99,,2013-01-02 04:32:00,
2013-01-01 23:42:00,73.0,60.0,30.07,North,3,1.0,3.0,64,-99.99,,,-99.99,,2013-01-02 04:42:00,
2013-01-01 23:52:00,73.0,61.0,30.07,North,0,0.0,0.0,65,-99.99,,,-99.99,,2013-01-02 04:52:00,